Regional Weather Roundup
Issued by NWS

Home | Current Version | Previous Version | Text Only | Print | Product List | Glossary Off
Versions: 1 2 3 4 5 6 7 8 9 10 11 12 13 14 15 16 17 18 19 20 21 22 23 24 25 26 27 28 29 30 31 32 33 34 35 36 37 38 39 40 41 42 43 44 45 46 47 48 49 50

000
ASUS43 KFSD 250810
RWRSD

WEATHER ROUNDUP FOR SOUTH DAKOTA
NATIONAL WEATHER SERVICE SIOUX FALLS SD
300 AM CDT MON SEP 25 2017

NOTE: "FAIR" INDICATES FEW OR NO CLOUDS BELOW 12,000 FEET WITH NO
SIGNIFICANT WEATHER AND/OR OBSTRUCTIONS TO VISIBILITY.


SDZ001>005-009-010-012>017-250900-
NORTHWEST AND NORTH CENTRAL SOUTH DAKOTA

CITY           SKY/WX    TMP DP  RH WIND       PRES   REMARKS
BUFFALO          N/A     40  39  97 NW3       30.07R
FAITH            N/A     46  44  93 NE8       30.12S
MOBRIDGE       CLOUDY    50  45  83 N9        30.10R
$$

SDZ012>016-024>037-041>051-057-063-072>074-250900-
SOUTHWEST AND SOUTH CENTRAL SOUTH DAKOTA

CITY           SKY/WX    TMP DP  RH WIND       PRES   REMARKS
RAPID CTY ARPT NOT AVBL
PIERRE         CLOUDY    49  46  90 N7        30.09F
CUSTER         LGT RAIN  37  35  92 W6        30.13R FOG
ELLSWORTH AFB  CLOUDY    45  45 100 N7        30.12
PHILIP         CLOUDY    48  46  93 NE7       30.11R
PINE RIDGE     LGT RAIN  46  45  96 N7        30.12R
SPEARFISH      FOG       41  41 100 NE5       30.13S VSB 1
WINNER         CLOUDY    51  48  89 N9        30.08F
$$

SDZ004>011-016>023-039-040-250900-
NORTHEAST SOUTH DAKOTA

CITY           SKY/WX    TMP DP  RH WIND       PRES   REMARKS
ABERDEEN       CLOUDY    49  47  93 N8        30.09R
WATERTOWN      CLOUDY    49  48  97 N10       30.04S
BROOKINGS      RAIN      51  49  92 N10       30.01F
SISSETON         N/A     51  49  92 NW9       30.05R
$$

SDZ017-020-022-023-036>040-048>070-250900-
SOUTHEAST SOUTH DAKOTA

CITY           SKY/WX    TMP DP  RH WIND       PRES   REMARKS
SIOUX FALLS    LGT RAIN  54  54 100 N6        30.01S
HURON          CLOUDY    51  48  89 N10       30.04F
CHAMBERLAIN    CLOUDY    52  49  90 N13G18    30.07F
MITCHELL       CLOUDY    52  50  93 NW6       30.07R
YANKTON        LGT RAIN  53  51  93 N9        30.01F
$$

ABBREVIATIONS USED IN REMARKS
   TC - TEMPERATURE IN CELSIUS
  WCI - WIND CHILL INDEX
   HX - HEAT INDEX
  VSB - VISIBILITY




USA.gov is the U.S. government's official web portal to all federal, state and local government web resources and services.